GFSNW_prec_cthk_228.txt.gz
RH
11 10 9 10 8 8 14 18 27 41 38 38 45 48 50 52 50 51 52 59 62 73 72 69 84 89 88 86 92 93 81 88 81 78 90 96 98 99 98 97 98 96 98 95
11 10 10 8 7 9 17 25 30 37 38 45 46 49 52 55 54 55 53 59 60 63 76 80 80 86 79 90 96 97 97 98 97 85 92 75 90 97 95 94 99 95 97 97
12 10 10 8 8 12 23 31 33 38 44 44 48 52 49 53 52 54 63 69 63 64 69 73 81 79 77 80 85 88 88 88 95 97 98 93 84 96 91 89 88 94 97 98
11 10 9 9 10 14 27 33 36 36 37 38 44 51 56 58 58 57 65 64 69 71 74 66 68 67 75 71 78 76 78 77 69 67 79 73 73 79 81 83 84 88 97 96
11 12 11 11 16 23 32 40 41 38 35 36 41 48 58 57 58 68 65 71 65 66 65 69 64 66 70 70 60 72 69 63 59 56 53 53 65 63 73 78 92 82 79 88
14 13 13 16 21 28 41 43 41 38 33 35 41 49 60 61 60 61 68 73 74 60 57 53 50 50 51 58 63 64 69 62 59 51 48 53 73 68 70 72 82 86 88 78
14 15 20 25 25 27 34 38 38 41 36 36 41 46 58 58 59 63 60 65 76 75 72 46 43 41 44 55 61 63 65 64 67 62 53 61 89 81 72 71 71 71 77 80
18 23 29 28 27 27 31 37 39 39 36 34 37 48 55 56 56 59 54 58 72 75 70 57 51 50 43 48 56 60 62 68 73 74 73 64 77 91 92 84 80 70 75 75
26 27 26 26 26 25 27 34 40 38 37 31 34 46 51 57 59 55 51 50 64 70 76 79 83 81 68 60 58 58 65 67 79 83 81 87 98 91 81 77 96 92 72 72
21 20 20 19 21 24 27 33 37 36 34 28 32 43 50 58 61 59 53 58 61 57 67 84 96 95 90 88 80 73 68 75 82 93 91 80 93 88 80 89 98 90 85 79
19 18 17 17 17 18 20 25 32 34 32 28 29 38 43 54 62 61 58 60 60 60 69 86 92 96 97 98 96 95 90 83 83 82 95 95 93 84 91 97 90 82 75 68
19 19 17 17 17 17 18 23 28 31 30 23 28 39 40 47 57 58 61 63 66 65 70 75 80 88 93 92 96 80 88 94 97 94 98 96 91 90 90 87 77 70 60 58
22 19 17 16 15 16 17 19 27 31 28 24 30 35 34 47 48 54 57 59 64 63 64 68 71 72 78 89 81 82 76 70 77 92 96 86 94 88 82 76 60 49 44 39
22 19 17 15 15 15 16 19 28 32 32 34 23 26 33 33 42 47 52 59 59 58 54 56 66 70 70 78 73 67 60 54 60 65 65 65 65 65 57 53 46 38 30 26
24 21 18 17 16 16 16 19 33 39 37 35 26 33 30 36 40 45 46 47 50 48 47 50 55 57 61 66 65 59 52 52 57 57 48 47 50 47 45 44 42 34 28 29
25 23 21 20 18 17 18 28 42 47 39 37 34 32 44 41 38 46 52 58 60 57 56 53 50 52 61 63 61 61 66 62 57 54 46 43 44 44 45 42 33 30 29 30
26 24 23 22 20 19 23 33 47 42 42 34 39 39 40 42 39 39 52 56 62 63 63 66 60 57 62 74 70 65 67 62 54 48 47 49 61 64 52 43 39 38 37 37
25 25 24 23 22 22 22 28 37 39 40 39 45 43 46 49 40 39 44 48 51 65 66 62 64 60 63 64 57 67 68 60 54 48 50 70 69 61 54 49 45 44 43 43
25 25 30 29 29 39 47 52 49 46 44 40 48 48 45 48 48 46 43 50 59 58 59 57 56 58 62 53 58 66 69 64 57 50 49 56 66 63 58 55 50 50 48 47
28 34 39 39 48 47 48 45 43 50 49 42 42 38 44 50 57 51 47 44 48 48 38 47 51 48 45 50 52 60 58 58 56 54 53 51 51 52 55 56 56 55 53 52
40 42 45 49 48 44 44 56 54 56 53 49 46 41 39 47 59 60 50 48 45 54 47 56 53 51 49 51 52 55 56 55 54 53 52 53 56 57 59 62 64 64 62 59
41 44 43 45 47 51 57 64 58 55 53 51 55 55 54 55 58 59 58 60 57 54 53 56 51 45 51 57 60 60 59 57 57 56 55 54 53 55 59 62 62 60 58 58
42 40 41 46 50 60 61 60 53 52 46 51 57 62 58 58 60 62 64 64 62 55 61 58 47 49 58 65 65 66 62 61 59 58 57 52 49 49 51 52 54 54 53 55
43 49 50 54 60 54 51 47 51 51 50 52 55 59 63 65 71 71 70 61 59 65 65 55 58 65 69 71 68 66 65 62 57 50 44 41 44 45 42 45 46 47 45 47
53 55 60 54 46 45 47 52 56 58 58 57 61 65 66 72 73 72 69 71 66 61 56 62 69 78 78 77 75 73 66 58 53 43 35 35 37 38 36 36 38 41 45 45
52 54 55 50 55 54 53 59 62 65 62 60 60 62 71 77 76 77 76 71 68 62 68 64 67 77 84 81 80 76 70 61 51 39 36 38 37 39 37 34 35 36 38 46
50 52 53 54 60 63 61 65 66 66 69 71 66 64 66 72 77 79 71 72 66 68 70 69 69 71 80 84 80 70 61 55 48 43 38 36 34 35 32 29 28 29 27 28

GFSNW_prec_cthk_234.txt.gz
RH
23 15 10 8 10 14 15 16 27 24 19 19 29 33 32 31 29 31 33 39 43 47 53 54 55 53 65 61 70 84 98 97 84 78 78 91 85 96 97 98 96 97 91 98
11 8 8 10 12 14 13 22 25 24 21 28 33 33 32 31 31 31 35 39 45 49 58 72 54 47 52 64 70 84 91 90 94 73 66 68 80 81 89 95 98 97 95 93
7 8 9 10 12 13 13 14 25 25 24 27 28 32 32 33 32 34 38 40 46 52 57 63 56 45 52 60 65 74 81 86 91 95 90 80 92 92 97 94 97 98 98 97
10 10 9 10 11 12 10 14 25 24 30 29 28 31 34 33 38 34 36 41 51 63 70 61 51 49 55 55 59 69 72 82 69 70 70 82 93 92 93 95 98 98 98 98
11 11 11 11 12 11 10 14 19 22 26 26 27 33 36 39 38 39 37 44 52 67 73 67 61 61 56 63 59 67 63 66 60 55 49 67 84 86 89 93 95 98 98 98
12 12 11 11 11 12 13 15 15 15 27 27 30 34 35 39 39 34 38 44 53 64 68 54 53 51 56 65 77 63 63 66 61 54 48 62 74 94 96 95 96 97 96 98
15 13 13 13 13 12 10 12 13 17 30 27 29 32 34 37 39 41 34 41 55 59 68 64 43 43 57 68 73 65 65 65 64 63 52 77 94 96 98 98 96 97 98 98
16 15 14 14 13 13 14 12 13 15 26 25 27 32 35 35 37 35 37 42 51 60 61 63 57 50 51 51 58 55 58 67 70 74 68 67 80 92 96 96 98 98 95 90
19 17 17 15 13 14 15 15 14 13 17 24 22 31 35 41 38 36 36 40 46 54 60 63 77 85 90 88 76 68 66 74 78 84 84 94 93 90 88 93 94 96 91 79
20 19 16 15 15 16 16 17 15 14 17 21 21 29 33 36 38 40 38 38 43 47 50 60 70 80 84 88 86 90 84 80 87 94 95 91 88 86 87 92 94 91 79 74
19 17 14 14 14 15 17 17 17 16 17 20 20 25 31 35 38 40 35 35 39 45 48 56 61 69 74 75 67 71 81 91 89 78 79 80 73 72 82 89 90 80 69 65
15 13 13 13 12 13 16 17 19 16 14 21 21 21 27 32 37 38 37 38 39 42 46 50 51 60 64 67 70 59 68 71 68 64 61 67 70 75 80 86 67 60 54 49
15 15 14 14 14 14 13 16 18 16 18 18 18 19 30 32 36 38 40 39 40 41 40 42 47 51 56 59 58 59 53 59 60 54 42 44 44 53 54 56 57 55 47 37
16 16 15 14 14 13 13 14 16 20 22 25 25 28 30 29 30 37 38 39 41 42 42 43 43 48 50 53 53 56 51 54 56 53 44 39 35 38 42 49 50 51 42 36
18 17 16 15 15 13 13 14 17 24 25 28 23 23 28 30 29 37 41 43 46 53 54 54 52 49 53 54 55 55 50 53 57 55 47 45 38 41 51 51 50 46 35 33
20 19 17 18 17 14 14 16 19 30 31 30 31 31 32 33 34 37 43 46 53 56 55 56 54 51 55 58 55 41 46 49 51 53 53 47 41 43 50 57 58 58 44 38
24 21 20 21 19 18 19 24 31 35 37 32 28 32 37 41 39 39 40 43 48 53 55 50 55 58 59 59 56 41 44 47 52 55 49 43 44 45 48 54 55 55 47 43
24 23 24 23 22 21 24 33 36 37 34 34 34 36 40 41 42 43 41 42 45 46 49 51 55 58 58 55 39 42 44 47 52 51 45 43 44 46 48 50 50 49 48 48
25 25 25 24 25 30 30 37 44 45 43 35 39 42 39 44 47 44 47 49 54 53 54 52 54 54 52 38 38 42 43 47 48 47 46 45 46 48 50 50 51 50 51 51
27 29 36 37 43 45 46 55 56 58 56 47 38 37 40 41 46 50 50 53 54 54 52 54 56 48 37 38 41 41 43 46 49 50 49 50 50 49 50 50 50 50 50 48
32 39 43 46 49 49 48 47 52 55 54 45 39 33 33 34 44 47 50 54 56 61 54 55 57 52 43 44 45 47 49 53 54 54 54 54 53 50 49 48 47 47 46 42
39 44 47 49 50 51 48 55 57 55 47 42 47 48 43 41 48 57 59 60 62 61 59 64 61 45 42 46 50 54 56 58 61 62 62 61 55 49 45 41 41 44 43 39
46 46 44 47 52 56 53 55 53 55 43 45 52 58 56 59 60 61 65 67 67 63 69 65 52 42 48 51 57 60 64 68 69 70 67 60 56 48 40 37 37 37 37 35
43 42 44 44 52 48 48 46 45 42 43 46 53 59 59 59 63 65 67 64 64 70 68 61 53 51 56 62 67 67 69 73 75 75 70 60 50 43 41 40 36 32 32 32
44 46 51 49 44 47 48 47 47 46 47 48 57 63 64 69 68 67 66 69 72 66 63 58 59 61 63 68 72 71 69 68 70 67 63 57 51 49 47 44 39 35 32 33
50 54 58 61 61 53 51 48 49 49 51 55 58 66 71 71 69 72 70 68 67 60 58 54 62 66 68 70 72 72 75 79 73 68 62 56 53 52 51 46 42 41 41 42
56 57 60 67 67 58 50 46 45 51 54 61 65 69 69 67 70 75 69 68 59 54 56 61 64 68 71 72 74 76 76 77 79 79 79 69 56 50 48 46 48 43 45 47

GFSNW_prec_cthk_240.txt.gz
RH
95 95 94 93 91 84 71 49 31 15 12 17 24 29 23 22 23 21 22 26 28 31 30 36 33 34 38 44 55 58 66 81 80 64 73 76 83 96 98 96 92 98 86 97
96 94 92 89 82 54 24 21 22 15 10 24 29 25 26 24 23 23 25 27 30 33 36 42 34 40 39 47 56 61 64 75 77 67 68 71 86 94 96 93 98 97 84 97
95 94 88 83 66 23 10 15 22 17 18 20 20 21 21 23 22 22 25 29 34 39 37 34 38 40 41 51 57 57 59 65 79 81 83 87 97 94 95 90 94 95 97 97
94 89 78 57 23 11 10 13 21 18 24 26 21 21 19 21 22 26 28 30 32 34 36 33 32 31 41 50 52 51 52 60 55 61 73 81 94 94 93 96 97 93 98 96
81 67 30 14 12 11 8 13 17 20 23 23 21 20 24 20 25 25 26 30 31 37 37 35 36 39 37 44 47 45 46 53 49 50 56 73 92 89 89 90 95 96 92 95
53 22 16 13 12 11 9 12 16 20 26 23 20 21 24 24 22 26 29 31 36 36 33 30 29 34 36 40 47 48 48 52 51 47 47 56 79 95 93 91 91 88 87 95
20 13 14 13 11 10 9 12 12 18 27 22 20 19 21 21 22 28 28 31 32 31 31 29 31 38 40 42 48 51 59 62 57 57 51 67 81 88 94 93 92 90 85 76
13 13 14 13 12 10 9 9 8 13 22 19 20 21 23 21 25 26 27 29 29 29 32 33 33 35 38 46 49 50 54 61 69 68 65 65 63 76 90 87 88 82 77 71
11 11 12 12 11 10 10 9 7 8 20 23 19 22 22 21 25 26 28 28 27 28 32 35 36 36 39 39 48 52 55 49 57 67 68 74 68 71 75 89 84 76 65 62
12 12 12 12 11 11 10 9 7 7 16 21 21 21 24 22 24 27 27 29 29 28 32 36 37 34 35 39 40 42 42 45 50 57 67 68 51 53 65 69 78 63 53 46
14 13 13 12 12 12 11 9 8 7 15 19 20 20 18 19 23 25 26 28 30 31 35 38 38 40 41 41 34 38 44 49 44 46 46 50 38 39 48 58 69 50 47 41
16 14 13 13 12 11 11 10 9 7 11 18 18 20 20 20 20 21 28 29 30 31 34 36 37 38 40 40 40 32 47 42 47 44 42 41 40 41 47 43 52 44 42 37
15 14 14 13 12 12 11 9 9 8 15 19 21 22 19 19 20 20 28 31 31 32 31 33 36 41 38 42 43 36 40 40 46 50 39 41 42 46 47 46 46 42 42 41
14 13 12 11 11 11 10 9 9 9 14 21 21 18 21 22 23 22 25 27 30 33 37 38 37 37 36 41 40 37 40 43 41 43 44 41 48 45 40 41 40 40 41 40
14 13 12 12 12 11 10 10 9 10 15 23 23 24 25 24 24 25 27 32 37 39 42 47 47 45 44 44 44 37 37 36 45 51 45 41 44 41 38 43 42 43 46 48
14 13 12 12 11 10 10 12 12 11 15 19 26 27 28 23 24 24 33 37 41 44 46 46 46 48 49 48 40 40 41 35 36 40 41 42 44 38 39 42 44 46 48 49
15 13 12 12 11 10 12 16 16 14 13 18 23 27 28 31 30 32 37 40 44 46 50 47 48 52 53 49 44 38 44 40 39 41 43 45 44 41 41 43 45 46 47 48
16 15 14 14 16 18 24 18 22 18 18 17 23 32 34 34 38 40 38 45 44 48 49 56 51 58 60 52 37 38 41 40 41 43 48 48 44 45 48 47 47 47 48 47
18 17 18 19 23 27 31 29 28 22 23 23 25 31 40 34 42 43 46 48 53 56 55 58 58 58 58 44 40 38 42 44 47 48 48 50 50 53 56 56 56 53 49 43
20 22 28 31 31 32 33 34 35 33 32 31 28 32 40 37 42 48 49 50 53 56 57 58 58 50 44 42 42 42 42 46 51 53 56 57 58 62 64 64 59 55 49 47
29 37 41 41 38 39 42 42 40 38 38 37 35 36 37 41 45 49 46 50 50 55 58 56 53 52 46 43 40 42 45 49 54 56 57 58 63 69 71 71 59 47 46 48
33 38 42 43 44 42 39 40 39 40 43 39 37 33 35 39 43 45 47 49 53 57 57 59 58 45 44 44 46 49 52 57 58 60 64 68 68 67 67 59 53 47 45 44
37 38 41 42 43 46 39 45 43 48 40 38 36 33 33 32 37 44 50 57 63 58 63 60 47 45 45 49 52 56 59 61 65 66 65 64 64 62 61 61 54 45 41 42
38 35 40 40 43 39 37 37 40 39 37 38 40 41 45 49 48 50 56 56 59 62 64 50 46 46 48 52 56 60 62 63 64 66 67 68 65 67 70 73 74 56 39 41
39 35 33 35 34 41 45 46 45 41 42 44 45 48 49 49 50 48 54 60 64 59 54 52 48 51 53 56 58 61 63 62 63 65 67 67 68 72 75 79 82 69 45 42
40 37 40 39 39 41 44 46 51 48 49 53 52 53 54 52 49 53 57 54 56 55 53 52 50 53 56 58 58 60 62 63 64 66 67 69 71 74 77 81 84 73 51 50
44 42 39 45 46 50 45 49 54 54 56 60 54 57 56 54 53 58 53 55 55 56 54 53 53 56 59 57 59 60 61 63 65 67 68 70 73 76 79 83 84 76 52 50

GFSNW_prec_cthk_243.txt.gz
RH
80 89 86 88 88 89 91 88 88 78 70 61 36 26 17 15 16 18 23 23 23 26 27 29 31 34 31 35 43 52 62 79 81 79 71 74 86 95 96 95 97 86 80 95
87 82 92 90 90 95 91 94 85 72 58 40 31 20 17 16 17 22 26 26 24 26 29 36 33 33 35 42 47 49 56 72 74 65 68 72 88 93 94 97 95 89 83 96
92 89 93 96 93 95 93 83 73 47 26 23 20 19 18 19 22 25 26 25 28 28 32 28 37 34 37 37 40 43 52 64 72 81 84 91 95 94 90 92 93 92 97 96
90 92 95 93 96 88 65 50 35 19 28 23 18 18 16 20 24 22 26 29 28 30 35 37 38 34 39 37 37 48 48 64 56 51 67 77 81 92 92 90 95 93 96 93
96 96 96 94 86 73 52 19 20 21 20 20 24 20 20 20 19 20 27 28 25 29 33 36 36 37 38 34 35 43 46 52 50 58 65 66 71 79 87 91 93 86 88 85
98 97 95 89 78 53 28 15 16 16 22 26 25 22 20 20 19 24 26 26 29 33 34 30 33 37 36 37 39 39 47 53 55 58 51 61 77 78 78 84 89 87 86 85
97 95 91 78 50 27 11 14 17 20 25 23 23 23 23 21 21 23 24 28 36 32 26 26 30 32 37 38 45 43 44 50 63 66 63 87 87 83 73 72 73 72 68 67
94 87 54 29 17 12 12 17 18 21 24 25 22 21 24 24 23 25 26 28 31 30 31 38 39 40 43 44 41 44 40 46 61 71 64 75 72 69 76 74 69 57 55 51
70 49 22 18 14 9 12 14 16 18 23 24 17 20 22 21 24 27 29 27 28 32 36 39 48 35 35 35 43 38 42 40 50 54 61 62 53 53 70 73 94 68 51 43
37 22 17 15 12 9 11 8 14 18 22 19 19 21 24 23 25 30 29 30 31 33 36 43 42 35 27 38 33 33 33 38 43 48 55 71 34 36 46 84 72 62 44 40
19 19 17 14 11 9 10 9 12 21 21 22 26 23 24 24 27 29 28 28 31 31 39 41 35 44 38 40 27 27 34 38 51 45 46 54 32 36 45 45 46 52 43 40
16 15 13 12 10 11 12 10 13 17 20 22 23 26 28 31 33 31 26 36 28 27 33 34 36 38 39 32 46 39 49 43 41 41 44 40 50 47 51 52 55 52 41 38
13 13 12 11 10 11 12 11 11 13 18 19 17 19 18 21 27 25 30 30 27 28 28 34 37 39 36 47 49 42 45 43 39 47 53 45 52 49 56 51 50 48 40 42
12 13 12 13 12 11 11 13 13 13 17 24 27 20 22 21 20 23 26 26 27 28 28 30 34 35 36 38 40 40 40 48 46 48 54 62 54 59 49 45 51 49 46 46
14 14 13 13 12 12 13 12 12 15 20 28 24 23 22 22 27 29 28 29 29 34 35 36 44 42 40 39 41 41 46 48 51 55 58 53 51 51 45 45 52 50 47 49
13 13 12 11 11 12 13 11 13 13 19 21 25 30 24 26 29 31 32 35 37 36 35 42 43 45 39 38 42 41 43 44 43 41 50 48 46 47 47 47 48 50 49 51
12 12 12 11 13 19 19 19 17 11 14 22 28 32 30 30 31 38 40 38 39 38 46 42 44 48 52 48 44 39 43 45 48 47 47 46 61 58 48 48 54 54 58 59
12 12 12 12 13 16 19 17 12 14 19 23 29 41 35 36 40 46 46 43 43 43 45 47 49 49 52 50 42 38 37 39 47 46 46 51 53 47 52 56 61 62 65 62
14 14 16 23 29 30 24 17 14 15 21 24 27 33 45 36 48 50 46 50 52 53 52 49 50 51 54 47 46 42 43 42 45 52 57 58 54 53 58 64 69 71 71 61
18 23 27 27 33 26 22 24 27 24 24 24 32 39 43 37 49 50 50 47 50 55 54 52 52 50 46 44 44 45 45 47 48 51 57 64 60 62 63 65 70 69 60 53
36 38 40 36 30 35 36 37 33 31 34 30 31 40 36 45 48 50 49 52 49 49 55 50 48 46 46 41 37 36 40 45 50 56 59 57 56 58 62 64 60 57 57 53
35 35 39 39 40 38 37 38 39 38 38 37 37 40 46 47 51 50 43 45 47 50 54 54 54 46 41 41 39 42 45 49 53 56 59 61 61 59 59 57 60 62 63 60
35 39 39 38 41 45 43 48 38 43 41 42 40 43 43 40 42 47 42 51 53 51 56 57 50 45 42 41 44 47 49 51 54 56 59 60 57 58 57 59 62 65 69 61
39 36 41 41 44 40 37 37 43 43 42 42 40 40 37 45 44 46 53 47 48 53 56 51 46 45 44 44 48 51 52 52 54 57 60 61 59 60 58 60 63 67 69 63
39 38 39 37 35 39 42 46 45 42 41 43 43 44 47 49 49 47 49 50 52 47 47 51 46 47 46 47 50 53 55 54 52 56 59 59 59 59 60 63 65 68 70 66
38 39 40 39 37 43 45 47 51 49 53 53 53 50 52 48 50 51 51 45 45 47 47 49 50 47 51 52 53 52 53 56 56 58 60 62 60 61 63 66 68 72 76 70
40 43 42 45 47 45 41 42 51 53 60 64 58 59 56 55 55 53 48 47 47 48 50 51 50 50 53 55 54 52 53 53 56 58 60 63 66 65 66 68 70 78 78 76

GFSNW_prec_cthk_246.txt.gz
RH
68 79 69 73 74 67 73 79 88 96 93 93 91 87 55 33 16 17 17 20 21 24 25 25 29 29 29 27 34 44 57 75 77 80 75 71 82 84 89 97 92 82 79 96
64 81 68 79 61 68 78 91 93 91 94 95 92 71 38 17 16 18 19 21 21 22 27 29 28 27 26 32 35 36 51 59 73 69 73 69 75 80 86 92 88 89 81 95
65 65 70 65 70 80 85 91 95 95 96 90 64 38 19 18 20 18 19 21 22 24 25 26 29 28 27 28 37 40 51 61 68 70 84 73 79 88 85 84 91 90 96 88
89 82 64 75 90 93 93 93 90 81 86 81 47 22 20 20 19 19 23 24 26 32 36 31 32 30 37 38 37 54 54 63 54 60 74 67 65 73 84 91 95 92 97 84
73 87 85 92 91 94 94 88 75 73 73 51 24 26 24 18 17 19 24 26 26 29 33 39 42 35 48 40 45 46 46 50 50 61 71 62 71 62 66 72 76 81 80 80
75 78 89 92 96 94 91 80 66 56 28 24 27 23 19 17 18 23 23 24 26 25 30 32 35 37 38 37 40 43 45 49 59 68 62 70 81 76 64 63 66 64 64 59
88 93 98 98 94 93 82 66 37 28 26 26 25 17 14 20 22 24 26 28 30 31 29 23 28 34 36 37 45 40 38 40 53 69 73 90 84 76 69 69 61 57 52 46
96 98 97 96 91 85 70 53 21 21 26 23 20 18 20 24 23 27 23 29 36 29 24 41 45 50 55 53 38 38 29 37 44 66 75 76 63 65 64 67 80 71 60 50
99 98 95 93 87 78 60 32 17 18 22 22 17 22 23 26 29 28 29 27 25 25 40 55 57 40 38 38 53 39 42 29 38 36 64 67 49 37 38 58 96 80 70 55
98 97 95 88 82 69 37 17 20 18 17 18 19 23 26 24 25 26 26 25 26 34 45 58 45 36 25 45 31 35 32 33 49 38 43 50 54 36 26 64 78 54 56 44
98 96 86 68 46 24 17 18 19 17 16 21 24 26 26 28 26 30 28 30 35 37 57 55 39 53 42 25 34 25 30 32 53 44 50 49 34 32 38 41 40 43 45 41
96 75 50 24 17 17 16 13 15 19 19 28 30 32 31 33 33 32 26 38 29 36 43 40 38 31 39 32 43 47 47 52 41 40 50 35 41 43 40 49 46 49 50 42
57 44 23 18 15 17 14 14 16 18 23 30 28 29 29 32 34 30 30 28 27 26 28 33 40 39 39 47 54 52 45 46 49 47 50 52 53 54 55 55 42 49 46 45
42 27 20 16 14 17 12 12 15 13 21 28 33 25 26 23 26 25 29 28 23 24 25 28 31 35 36 37 41 42 40 49 55 53 50 58 58 61 60 49 38 51 52 49
24 18 16 14 14 14 18 19 18 20 21 32 28 25 20 21 25 22 20 21 22 27 32 32 34 44 41 37 37 39 47 48 52 55 55 60 58 55 48 44 47 54 52 52
15 16 15 14 13 11 11 13 15 21 22 23 26 29 24 25 26 27 27 27 33 36 39 40 39 41 39 35 38 40 41 41 42 43 44 47 47 44 57 53 46 53 56 57
14 13 12 12 12 14 15 12 18 20 23 25 29 30 27 25 26 30 32 36 37 37 45 44 43 45 50 48 46 42 39 38 41 45 47 49 50 62 58 53 48 55 62 68
12 12 12 13 14 16 18 15 15 14 21 23 27 37 33 29 31 35 36 40 38 42 41 42 46 48 51 50 42 38 37 36 37 43 48 48 52 55 50 54 56 61 62 65
12 11 12 16 24 22 19 17 15 18 21 22 29 36 37 31 34 42 45 47 51 46 50 50 49 51 51 45 44 43 41 40 40 41 47 52 55 56 54 58 58 58 63 58
15 18 23 30 30 18 17 20 20 23 20 20 29 33 42 32 41 49 47 48 49 55 52 50 51 47 44 46 45 43 43 43 43 44 47 55 61 63 59 57 58 58 53 54
28 32 31 28 25 28 30 26 21 22 23 20 28 39 41 40 47 48 49 49 49 50 51 53 49 46 42 41 38 35 34 39 47 46 49 54 52 50 51 53 52 51 53 56
33 26 28 29 33 32 34 30 32 28 27 29 28 36 36 45 50 51 49 48 45 50 54 50 51 44 42 40 37 37 38 43 44 48 50 51 51 50 49 50 50 53 53 56
32 34 34 35 38 44 41 42 36 37 37 37 42 46 48 52 50 50 44 50 50 46 53 52 43 45 38 40 42 45 44 43 46 49 48 48 49 48 48 50 50 53 55 58
36 34 38 42 42 40 36 37 38 41 42 40 46 50 47 50 48 42 48 46 48 52 50 48 44 44 41 43 44 45 46 46 46 49 50 50 49 48 48 50 51 54 58 60
35 34 39 37 40 41 43 49 48 45 44 43 49 51 51 49 44 41 46 51 51 46 44 48 44 43 41 45 48 50 51 49 47 45 47 47 47 48 49 51 52 54 59 62
34 35 37 40 42 46 45 47 47 48 45 46 51 53 54 49 44 47 51 48 46 45 44 48 42 42 45 49 51 51 49 49 52 52 52 52 51 52 51 50 50 54 59 63
35 38 40 45 47 46 43 50 48 53 53 56 54 56 49 48 50 51 49 47 48 48 46 44 44 45 48 52 52 51 49 47 49 50 49 50 52 54 53 52 52 54 58 63